Regional Weather Roundup
Issued by NWS Bismarck, ND

Home | Current Version | Previous Version | Text Only | Print | Product List | Glossary On
Versions: 1 2 3 4 5 6 7 8 9 10 11 12 13 14 15 16 17 18 19 20 21 22 23 24 25 26 27 28 29 30 31 32 33 34 35 36 37 38 39 40 41 42 43 44 45 46 47 48 49 50
000
ASUS43 KBIS 200110
RWRBIS

NWR BROADCAST TEXT
NATIONAL WEATHER SERVICE BISMARCK ND
700 PM CST FRI JAN 19 2018

NOTE: "FAIR" INDICATES FEW OR NO CLOUDS BELOW 12,000 FEET WITH NO
SIGNIFICANT WEATHER AND/OR OBSTRUCTIONS TO VISIBILITY.


CITY           SKY/WX    TMP DP  RH WIND       PRES   REMARKS
WILLISTON      FAIR      33  25  72 CALM      29.66R
MINOT          FAIR      36  27  69 W13       29.61R
MINOT AFB      PTCLDY    34  27  77 W15       29.59R
BISMARCK       FAIR      39  31  72 SW6       29.67R
DICKINSON      CLOUDY    35  31  85 W15       29.67R
GARRISON         N/A     32  27  81 W9        29.63R
HETTINGER ARPT MOCLDY    34  31  88 W9        29.72R
JAMESTOWN      FAIR      37  30  75 W10       29.62R
CARRINGTON     FAIR      34  30  86 W9        29.63R
HAZEN            N/A     36  28  75 SW7       29.67R
LINTON           N/A     36  28  75 SW9       29.70R
MANDAN         MOCLDY    37  32  81 W10       29.67R
OAKES            N/A     32  30  93 W7        29.66R
RUGBY          FAIR      28  28 100 W8        29.59R
STANLEY        FAIR      30  27  86 W10       29.63F
TIOGA          FAIR      30  28  93 W15       29.64R WCI  19
WATFORD CITY   FAIR      32  27  80 W8        29.67R
$$

CITY           SKY/WX    TMP DP  RH WIND       PRES   REMARKS
GRAND FORKS    MOCLDY    35  31  85 W6        29.56R
GRAND FORKS AF MOCLDY    36  30  78 NW8       29.56R
DEVILS LAKE    FAIR      32  28  85 W12       29.59R
FARGO          FAIR      35  31  85 W7        29.60R
CANDO          FAIR      34  30  86 W12       29.59R
CAVALIER         N/A     37  30  75 NW7G14    29.53R
GRAFTON        FAIR      32  30  93 W12       29.56R
GWINNER          N/A     36  30  80 W9        29.64S
LANGDON        FAIR      32  32 100 W14       29.54R
ROLLA          FAIR      34  27  75 W13       29.55R
WALHALLA       FAIR      37  34  87 W8        29.53R
$$

CITY           SKY/WX    TMP DP  RH WIND       PRES   REMARKS
ABERDEEN       MOCLDY    34  28  79 SW7       29.69R
MOBRIDGE       CLEAR     36  28  73 CALM      29.68R
BUFFALO          N/A     36  33  89 NW5       29.65R
RAPID CITY     MOCLDY    32  27  81 CALM      29.73R
GLASGOW        MOCLDY    30  26  85 W5        29.68R
SIDNEY         MOCLDY    32  29  88 CALM      29.70R
WOLF POINT     CLOUDY    34  27  75 W7        29.70R
GLENDIVE       MOCLDY    36  32  85 S5        29.73R
MILES CITY     CLOUDY    36  35  96 W5        29.73S
BAKER          CLOUDY    35  34  96 CALM      29.72R
$$

CITY           SKY/WX    TMP DP  RH WIND       PRES   REMARKS
BILLINGS       CLOUDY    36  32  85 W8        29.78R
GREAT FALLS    MOCLDY    31  20  63 SW14      29.74R
REGINA         CLEAR     27  23  86 W7        29.57R WCI  19
ESTEVAN        PTCLDY    25  23  93 SW8       29.60R WCI  16
$$





USA.gov is the U.S. government's official web portal to all federal, state and local government web resources and services.